• Join FlightAware (Why Join?)
  • Login
  • US Flag 
10:15AM EST


 

Airport Tracker/Info


-or-


 

Live Flight TrackerFlight Track Log ✈ AWE1940 ✈ 08-May-2013 ✈ KCLT - KALB

Flight Track Log - Related Links

Times and Time Zones

All times are in EDT time to prevent confusion due to time zone crossing. See the AWE1940 flight status page for this flight to view local times or setup timezone preferences in your user account.

Time Position Orientation Groundspeed Altitude Reporting Facility
EDT Latitude Longitude Course Direction KTS MPH feet Rate Location/Type
10:15PM 35.1908 -80.9356 72° East 187 215 1,300  Level Atlanta Center
10:16PM 35.1636 -80.9342 178° South 192 221 2,300 1,780 Climbing Atlanta Center
10:17PM 35.1411 -80.8689 113° Southeast 264 304 4,000 2,032 Climbing Atlanta Center
10:18PM 35.1112 -80.6259 29° Northeast  Level FlightAware Approximate
10:18PM 35.1767 -80.7914 61° Northeast 291 335 6,500  Level Atlanta Center
10:19PM 35.2075 -80.5613 30° Northeast  Level FlightAware Approximate
10:19PM 35.2097 -80.7011 66° East 291 335 9,100  Level Atlanta Center
10:20PM 35.3024 -80.4935 30° Northeast  Level FlightAware Approximate
10:20PM 35.2489 -80.6081 63° Northeast 296 341 10,800  Level Atlanta Center
10:21PM 35.3528 -80.3932 72° East  Level FlightAware Approximate
10:21PM 35.2975 -80.4864 64° Northeast 331 381 11,800  Level Atlanta Center
10:22PM 35.3481 -80.3594 64° Northeast 385 443 13,800 2,020 Climbing Atlanta Center
10:24PM 35.4578 -80.0442 67° East 425 489 18,600 2,050 Climbing Washington Center
10:25PM 35.4967 -79.8933 72° East 442 509 20,700 1,983 Climbing Washington Center
10:26PM 35.5353 -79.7397 73° East 453 521 22,500 1,678 Climbing Washington Center
10:27PM 35.5783 -79.5836 71° East 469 540 24,000 1,537 Climbing Washington Center
10:28PM 35.6164 -79.4372 72° East 489 563 25,600 1,869 Climbing Washington Center
10:29PM 35.6778 -79.2792 64° Northeast 478 550 27,800 2,083 Climbing Washington Center
10:30PM 35.7364 -79.1308 64° Northeast 478 550 29,800 1,831 Climbing Washington Center
10:31PM 35.7947 -78.9903 63° Northeast 466 536 31,400 1,525 Climbing Washington Center
10:32PM 35.8531 -78.8442 64° Northeast 466 536 32,800 787 Climbing Washington Center
10:33PM 35.9067 -78.7181 62° Northeast 460 529 33,000 98 Climbing Washington Center
10:34PM 35.9725 -78.5847 59° Northeast 455 524 33,000  Level Washington Center
10:35PM 36.0386 -78.4483 59° Northeast 455 524 33,000  Level Washington Center
10:36PM 36.1044 -78.3119 59° Northeast 455 524 33,000  Level Washington Center
10:37PM 36.1722 -78.1728 59° Northeast 455 524 33,000  Level Washington Center
10:38PM 36.2375 -78.0358 59° Northeast 455 524 33,000  Level Washington Center
10:39PM 36.3008 -77.8986 60° Northeast 455 524 33,000  Level Washington Center
10:40PM 36.3681 -77.7561 60° Northeast 455 524 33,000  Level Washington Center
10:41PM 36.4331 -77.6186 60° Northeast 455 524 33,000  Level Washington Center
10:42PM 36.5003 -77.4703 61° Northeast 461 531 33,000  Level Washington Center
10:43PM 36.5669 -77.3297 59° Northeast 466 536 33,000  Level Washington Center
10:44PM 36.6403 -77.1683 60° Northeast 476 548 33,000  Level Washington Center
10:45PM 36.7108 -77.0272 58° Northeast 481 554 33,000  Level Washington Center
10:46PM 36.8122 -76.9228 40° Northeast 470 541 33,000  Level Washington Center
10:47PM 36.9175 -76.8286 36° Northeast 465 535 33,000  Level Washington Center
10:48PM 37.0269 -76.7289 36° Northeast 470 541 33,000  Level Washington Center
10:49PM 37.1342 -76.6314 36° Northeast 470 541 33,000  Level Washington Center
10:50PM 37.2414 -76.5336 36° Northeast 475 547 33,000  Level Washington Center
10:51PM 37.3400 -76.4433 36° Northeast 482 555 33,000  Level Washington Center
10:52PM 37.4492 -76.3425 36° Northeast 482 555 33,000  Level Washington Center
10:53PM 37.5583 -76.2442 36° Northeast 482 555 33,000  Level Washington Center
10:54PM 37.6819 -76.1350 35° Northeast 482 555 33,000  Level Washington Center
10:55PM 37.7678 -76.0567 36° Northeast 482 555 33,000  Level Washington Center
10:56PM 37.8869 -75.9417 37° Northeast 482 555 33,000  Level Washington Center
10:57PM 37.9956 -75.8394 37° Northeast 482 555 33,000  Level Washington Center
10:58PM 38.1042 -75.7342 37° Northeast 487 560 33,000  Level Washington Center
10:59PM 38.2128 -75.6314 37° Northeast 487 560 33,000  Level Washington Center
11:00PM 38.3253 -75.5336 34° Northeast 481 554 33,000  Level Washington Center
11:01PM 38.4400 -75.4458 31° Northeast 482 555 33,000  Level Washington Center
11:02PM 38.5608 -75.3661 27° Northeast 482 555 33,000  Level Washington Center
11:03PM 38.6772 -75.2778 31° Northeast 482 555 33,000  Level Washington Center
11:04PM 38.7981 -75.2000 27° Northeast 477 549 33,000  Level Washington Center
11:05PM 38.9206 -75.1219 26° Northeast 477 549 33,000  Level Washington Center
11:06PM 39.0392 -75.0464 26° Northeast 472 543 33,000  Level Washington Center
11:07PM 39.1575 -74.9653 28° Northeast 472 543 33,000  Level Washington Center
11:08PM 39.2781 -74.8892 26° Northeast 472 543 33,000  Level Washington Center
11:09PM 39.3964 -74.8100 27° Northeast 472 543 33,000  Level Washington Center
11:11PM 39.6583 -74.6375 27° Northeast 508 585 33,000  Level New York Center
11:12PM 39.7775 -74.5606 26° Northeast 485 558 33,000  Level New York Center
11:13PM 39.9014 -74.4697 29° Northeast 467 537 33,000  Level New York Center
11:14PM 40.0247 -74.3922 26° Northeast 467 537 33,000  Level New York Center
11:15PM 40.1375 -74.3114 29° Northeast 467 537 33,000 -344 Level New York Center
11:16PM 40.2544 -74.2331 27° Northeast 467 537 32,300 -807 Descending New York Center
11:17PM 40.3736 -74.1519 27° Northeast 472 543 31,400 -966 Descending New York Center
11:18PM 40.4925 -74.0703 28° Northeast 472 543 30,400 -2,053 Descending New York Center
11:21PM 40.7467 -73.8975 27° Northeast 505 581 24,900 -2,021 Descending Boston Center
11:22PM 40.8564 -73.7875 37° Northeast 505 581 24,000 -650 Descending Boston Center
11:23PM 40.9600 -73.6467 46° Northeast 492 566 23,600 -500 Descending Boston Center
11:24PM 41.0878 -73.6022 15° North 472 543 23,000 -400 Descending Boston Center
11:25PM 41.2231 -73.6239 353° North 440 506 22,800 -1,100 Descending Boston Center
11:26PM 41.3561 -73.6403 355° North 464 534 20,800 -2,450 Descending Boston Center
11:27PM 41.4811 -73.6564 354° North 456 525 17,900 -2,250 Descending Boston Center
11:28PM 41.5914 -73.6669 356° North 443 510 16,300 -1,450 Descending Boston Center
11:29PM 41.7225 -73.6833 355° North 434 499 15,000 -1,300 Descending Boston Center